^^

..:: Storico WU ::..




Lo storico viene creato da WUnderground con i dati che la stazione Meteomincio invia al loro server. L' aggiornamento viene fatto ogni 5 minuti circa, tuttavia possono esserci intervalli pił ampi a causa di errori, interruzioni di servizio o problemi nell' invio tramite FTP.


Storico stazione MeteoMincio
Giorno Sommario per Marzo 14, 2022 Unità:  Inglese    Metrico   Entrambi
Giorno Settimana Mese Anno
  Max: Min: Media:
Temperatura: 53.6 °F 42.8 °F 47.3 °F
Dew Point: 39.2 °F 35.6 °F 37.2 °F
Umidità: 77% 54% 68%
Velocità vento: 8.1mph 0mph 3mph
Raffica: 10.6mph - -
Direzione- - South
Pressione: 30.6 in 30.4 in -
Precipitazioni: 0 in    
 
 
Tabulato Dati per Marzo 14, 2022
Ora Temperatura Dew Point Pressione Direzione Velocità vento Raffica Umidità Intensità pioggia (oraria) Info solare Situazione
00:04 42.8 °F 35.6 °F 30.4 in ENE 3.1 mph 5 mph 73% 0 in 0.00 W/m2 unknown
00:09 42.8 °F 35.6 °F 30.4 in ENE 5 mph 6.8 mph 73% 0 in 0.00 W/m2 unknown
00:14 42.8 °F 35.6 °F 30.4 in ENE 5 mph 6.8 mph 73% 0 in 0.00 W/m2 unknown
00:19 42.8 °F 35.6 °F 30.4 in ENE 4.3 mph 5 mph 73% 0 in 0.00 W/m2 unknown
00:24 42.8 °F 35.6 °F 30.4 in ENE 3.7 mph 5 mph 73% 0 in 0.00 W/m2 unknown
00:29 42.8 °F 35.6 °F 30.4 in ENE 3.7 mph 5 mph 73% 0 in 0.00 W/m2 unknown
00:34 42.8 °F 35.6 °F 30.4 in ENE 3.1 mph 5 mph 73% 0 in 0.00 W/m2 unknown
00:39 42.8 °F 35.6 °F 30.4 in NE 3.1 mph 5 mph 73% 0 in 0.00 W/m2 unknown
00:44 42.8 °F 35.6 °F 30.4 in NE 3.7 mph 5 mph 73% 0 in 0.00 W/m2 unknown
00:49 42.8 °F 35.6 °F 30.4 in ENE 3.7 mph 5 mph 73% 0 in 0.00 W/m2 unknown
00:54 42.8 °F 35.6 °F 30.4 in ENE 3.1 mph 5 mph 73% 0 in 0.00 W/m2 unknown
00:59 42.8 °F 35.6 °F 30.4 in NE 2.5 mph 3.7 mph 73% 0 in 0.00 W/m2 unknown
01:04 42.8 °F 35.6 °F 30.4 in ENE 3.1 mph 5 mph 73% 0 in 0.00 W/m2 unknown
01:09 42.8 °F 35.6 °F 30.4 in ENE 3.7 mph 5 mph 73% 0 in 0.00 W/m2 unknown
01:14 42.8 °F 35.6 °F 30.4 in ENE 3.1 mph 5 mph 73% 0 in 0.00 W/m2 unknown
01:19 42.8 °F 35.6 °F 30.4 in ENE 3.7 mph 5 mph 73% 0 in 0.00 W/m2 unknown
01:24 42.8 °F 35.6 °F 30.4 in ENE 3.1 mph 5 mph 73% 0 in 0.00 W/m2 unknown
01:29 42.8 °F 35.6 °F 30.4 in ENE 3.1 mph 3.7 mph 73% 0 in 0.00 W/m2 unknown
01:34 42.8 °F 35.6 °F 30.4 in ENE 3.1 mph 5 mph 73% 0 in 0.00 W/m2 unknown
01:39 42.8 °F 35.6 °F 30.4 in ENE 3.1 mph 5 mph 73% 0 in 0.00 W/m2 unknown
01:44 42.8 °F 35.6 °F 30.4 in ENE 3.1 mph 5 mph 73% 0 in 0.00 W/m2 unknown
01:49 42.8 °F 35.6 °F 30.4 in ENE 3.1 mph 3.7 mph 73% 0 in 0.00 W/m2 unknown
01:54 42.8 °F 35.6 °F 30.4 in ENE 3.1 mph 3.7 mph 73% 0 in 0.00 W/m2 unknown
01:59 42.8 °F 35.6 °F 30.4 in ENE 3.1 mph 3.7 mph 73% 0 in 0.00 W/m2 unknown
02:04 42.8 °F 35.6 °F 30.4 in ENE 3.7 mph 5 mph 73% 0 in 0.00 W/m2 unknown
02:09 42.8 °F 35.6 °F 30.4 in ENE 3.7 mph 5 mph 73% 0 in 0.00 W/m2 unknown
02:14 42.8 °F 35.6 °F 30.4 in ENE 2.5 mph 5 mph 74% 0 in 0.00 W/m2 unknown
02:19 42.8 °F 35.6 °F 30.4 in ENE 1.9 mph 5 mph 73% 0 in 0.00 W/m2 unknown
02:24 42.8 °F 35.6 °F 30.4 in ENE 3.1 mph 3.7 mph 73% 0 in 0.00 W/m2 unknown
02:29 42.8 °F 35.6 °F 30.4 in ENE 2.5 mph 3.7 mph 74% 0 in 0.00 W/m2 unknown
02:34 42.8 °F 35.6 °F 30.4 in ENE 2.5 mph 3.7 mph 74% 0 in 0.00 W/m2 unknown
02:39 42.8 °F 35.6 °F 30.4 in ENE 1.2 mph 3.1 mph 74% 0 in 0.00 W/m2 unknown
02:44 42.8 °F 35.6 °F 30.4 in ENE 1.9 mph 3.7 mph 74% 0 in 0.00 W/m2 unknown
02:49 42.8 °F 35.6 °F 30.4 in ENE 1.9 mph 3.1 mph 74% 0 in 0.00 W/m2 unknown
02:54 42.8 °F 35.6 °F 30.4 in ENE 1.9 mph 2.5 mph 73% 0 in 0.00 W/m2 unknown
02:59 42.8 °F 35.6 °F 30.4 in ENE 1.9 mph 3.7 mph 73% 0 in 0.00 W/m2 unknown
03:04 42.8 °F 35.6 °F 30.4 in ENE 1.9 mph 3.1 mph 73% 0 in 0.00 W/m2 unknown
03:09 42.8 °F 35.6 °F 30.4 in ENE 1.2 mph 2.5 mph 74% 0 in 0.00 W/m2 unknown
03:14 42.8 °F 35.6 °F 30.4 in NNE 1.9 mph 3.7 mph 74% 0 in 0.00 W/m2 unknown
03:19 42.8 °F 35.6 °F 30.4 in North 2.5 mph 3.7 mph 74% 0 in 0.00 W/m2 unknown
03:24 42.8 °F 35.6 °F 30.4 in North 1.9 mph 3.1 mph 74% 0 in 0.00 W/m2 unknown
03:29 42.8 °F 35.6 °F 30.4 in North 1.2 mph 2.5 mph 74% 0 in 0.00 W/m2 unknown
03:34 42.8 °F 35.6 °F 30.4 in NNE 1.9 mph 2.5 mph 73% 0 in 0.00 W/m2 unknown
03:39 42.8 °F 35.6 °F 30.4 in NNE 2.5 mph 3.7 mph 73% 0 in 0.00 W/m2 unknown
03:44 42.8 °F 35.6 °F 30.4 in NE 2.5 mph 3.7 mph 72% 0 in 0.00 W/m2 unknown
03:49 42.8 °F 35.6 °F 30.4 in NNE 1.9 mph 3.7 mph 72% 0 in 0.00 W/m2 unknown
03:54 42.8 °F 35.6 °F 30.4 in NNE 1.2 mph 3.1 mph 72% 0 in 0.00 W/m2 unknown
03:59 42.8 °F 35.6 °F 30.4 in NE 0.6 mph 2.5 mph 72% 0 in 0.00 W/m2 unknown
04:04 42.8 °F 35.6 °F 30.4 in NNE 1.2 mph 2.5 mph 72% 0 in 0.00 W/m2 unknown
04:09 42.8 °F 35.6 °F 30.4 in North 1.2 mph 2.5 mph 72% 0 in 0.00 W/m2 unknown
04:14 42.8 °F 35.6 °F 30.4 in North 1.9 mph 3.7 mph 73% 0 in 0.00 W/m2 unknown
04:19 42.8 °F 35.6 °F 30.4 in North 1.9 mph 3.1 mph 72% 0 in 0.00 W/m2 unknown
04:24 42.8 °F 35.6 °F 30.4 in NNE 1.9 mph 2.5 mph 72% 0 in 0.00 W/m2 unknown
04:29 42.8 °F 35.6 °F 30.4 in NNE 0.6 mph 2.5 mph 72% 0 in 0.00 W/m2 unknown
04:34 42.8 °F 35.6 °F 30.4 in NNE 1.9 mph 2.5 mph 73% 0 in 0.00 W/m2 unknown
04:39 42.8 °F 35.6 °F 30.4 in NNE 2.5 mph 3.7 mph 73% 0 in 0.00 W/m2 unknown
04:44 42.8 °F 35.6 °F 30.4 in NNE 1.9 mph 3.7 mph 73% 0 in 0.00 W/m2 unknown
04:49 42.8 °F 35.6 °F 30.4 in NNE 1.2 mph 3.1 mph 73% 0 in 0.00 W/m2 unknown
04:54 42.8 °F 35.6 °F 30.4 in NNE 0.6 mph 1.9 mph 73% 0 in 0.00 W/m2 unknown
04:59 42.8 °F 35.6 °F 30.4 in Calm   1.2 mph 73% 0 in 0.00 W/m2 unknown
05:04 42.8 °F 35.6 °F 30.4 in Calm   1.2 mph 74% 0 in 0.00 W/m2 unknown
05:09 42.8 °F 35.6 °F 30.4 in Calm     75% 0 in 0.00 W/m2 unknown
05:14 42.8 °F 35.6 °F 30.4 in Calm     76% 0 in 0.00 W/m2 unknown
05:19 42.8 °F 35.6 °F 30.4 in Calm     76% 0 in 0.00 W/m2 unknown
05:24 42.8 °F 35.6 °F 30.4 in Calm     76% 0 in 0.00 W/m2 unknown
05:29 42.8 °F 35.6 °F 30.4 in Calm     76% 0 in 0.00 W/m2 unknown
05:34 42.8 °F 35.6 °F 30.5 in Calm     76% 0 in 0.00 W/m2 unknown
05:39 42.8 °F 35.6 °F 30.5 in Calm     76% 0 in 0.00 W/m2 unknown
05:44 42.8 °F 35.6 °F 30.5 in Calm     76% 0 in 0.00 W/m2 unknown
05:49 42.8 °F 35.6 °F 30.5 in Calm     76% 0 in 0.00 W/m2 unknown
05:54 42.8 °F 35.6 °F 30.5 in Calm     76% 0 in 0.00 W/m2 unknown
05:59 42.8 °F 35.6 °F 30.5 in Calm     76% 0 in 0.00 W/m2 unknown
06:04 42.8 °F 35.6 °F 30.5 in Calm     76% 0 in 0.00 W/m2 unknown
06:09 42.8 °F 35.6 °F 30.5 in Calm     76% 0 in 0.00 W/m2 unknown
06:14 42.8 °F 35.6 °F 30.5 in Calm     77% 0 in 0.00 W/m2 unknown
06:19 42.8 °F 35.6 °F 30.5 in Calm     77% 0 in 0.00 W/m2 unknown
06:24 42.8 °F 35.6 °F 30.5 in Calm     77% 0 in 0.00 W/m2 unknown
06:29 42.8 °F 35.6 °F 30.5 in West 1.9 mph 2.5 mph 77% 0 in 0.00 W/m2 unknown
06:34 42.8 °F 35.6 °F 30.5 in West 1.2 mph 1.9 mph 77% 0 in 0.00 W/m2 unknown
06:39 42.8 °F 35.6 °F 30.5 in West 0.6 mph 1.2 mph 76% 0 in 0.00 W/m2 unknown
06:44 42.8 °F 35.6 °F 30.5 in Calm   1.2 mph 76% 0 in 5.00 W/m2 unknown
06:49 42.8 °F 35.6 °F 30.5 in Calm   1.2 mph 76% 0 in 9.00 W/m2 unknown
06:54 42.8 °F 35.6 °F 30.5 in West 1.2 mph 1.2 mph 76% 0 in 9.00 W/m2 unknown
06:59 42.8 °F 35.6 °F 30.5 in West 1.2 mph 1.2 mph 76% 0 in 12.00 W/m2 unknown
07:04 42.8 °F 35.6 °F 30.5 in West 1.2 mph 2.5 mph 76% 0 in 14.00 W/m2 unknown
07:09 42.8 °F 35.6 °F 30.5 in West 1.9 mph 2.5 mph 76% 0 in 23.00 W/m2 unknown
07:14 42.8 °F 35.6 °F 30.5 in West 1.9 mph 2.5 mph 76% 0 in 28.00 W/m2 unknown
07:19 42.8 °F 35.6 °F 30.5 in West 1.2 mph 2.5 mph 76% 0 in 37.00 W/m2 unknown
07:24 42.8 °F 35.6 °F 30.5 in West 1.2 mph 2.5 mph 76% 0 in 49.00 W/m2 unknown
07:29 42.8 °F 35.6 °F 30.5 in West 0.6 mph 1.2 mph 75% 0 in 58.00 W/m2 unknown
07:34 44.6 °F 35.6 °F 30.5 in WSW 1.2 mph 2.5 mph 75% 0 in 62.00 W/m2 unknown
07:39 44.6 °F 35.6 °F 30.5 in WSW 1.9 mph 2.5 mph 75% 0 in 69.00 W/m2 unknown
07:44 44.6 °F 35.6 °F 30.5 in WSW 2.5 mph 3.7 mph 74% 0 in 58.00 W/m2 unknown
07:49 44.6 °F 37.4 °F 30.5 in WSW 3.1 mph 3.7 mph 75% 0 in 62.00 W/m2 unknown
07:54 44.6 °F 37.4 °F 30.5 in WSW 3.1 mph 3.7 mph 75% 0 in 74.00 W/m2 unknown
07:59 44.6 °F 37.4 °F 30.5 in WSW 2.5 mph 3.7 mph 75% 0 in 90.00 W/m2 unknown
08:04 44.6 °F 37.4 °F 30.5 in WSW 3.1 mph 3.7 mph 74% 0 in 97.00 W/m2 unknown
08:09 44.6 °F 37.4 °F 30.5 in WSW 4.3 mph 5 mph 75% 0 in 93.00 W/m2 unknown
08:14 44.6 °F 37.4 °F 30.5 in WSW 3.1 mph 5 mph 75% 0 in 98.00 W/m2 unknown
08:19 44.6 °F 37.4 °F 30.5 in SW 3.1 mph 3.7 mph 77% 0 in 93.00 W/m2 unknown
08:24 44.6 °F 37.4 °F 30.5 in WSW 3.7 mph 5 mph 73% 0 in 97.00 W/m2 unknown
08:29 44.6 °F 37.4 °F 30.5 in SW 3.1 mph 5 mph 72% 0 in 91.00 W/m2 unknown
08:34 46.4 °F 37.4 °F 30.5 in WSW 2.5 mph 3.7 mph 71% 0 in 109.00 W/m2 unknown
08:39 46.4 °F 37.4 °F 30.5 in WSW 2.5 mph 3.7 mph 72% 0 in 123.00 W/m2 unknown
08:44 46.4 °F 37.4 °F 30.5 in WSW 2.5 mph 3.7 mph 72% 0 in 134.00 W/m2 unknown
08:49 46.4 °F 37.4 °F 30.5 in WSW 3.1 mph 3.7 mph 72% 0 in 151.00 W/m2 unknown
08:54 46.4 °F 37.4 °F 30.5 in WSW 3.1 mph 3.7 mph 72% 0 in 153.00 W/m2 unknown
08:59 46.4 °F 37.4 °F 30.5 in WSW 3.1 mph 3.7 mph 71% 0 in 151.00 W/m2 unknown
09:04 46.4 °F 37.4 °F 30.5 in WSW 2.5 mph 3.7 mph 72% 0 in 149.00 W/m2 unknown
09:09 46.4 °F 37.4 °F 30.5 in WSW 3.1 mph 3.7 mph 72% 0 in 162.00 W/m2 unknown
09:14 48.2 °F 37.4 °F 30.5 in West 3.1 mph 3.7 mph 71% 0 in 163.00 W/m2 unknown
09:19 48.2 °F 37.4 °F 30.5 in West 1.9 mph 3.7 mph 70% 0 in 156.00 W/m2 unknown
09:24 48.2 °F 37.4 °F 30.5 in WSW 1.2 mph 2.5 mph 70% 0 in 188.00 W/m2 unknown
09:29 48.2 °F 39.2 °F 30.5 in WSW 1.2 mph 2.5 mph 71% 0 in 227.00 W/m2 unknown
09:34 48.2 °F 39.2 °F 30.5 in West 2.5 mph 3.7 mph 71% 0 in 272.00 W/m2 unknown
09:39 48.2 °F 39.2 °F 30.5 in WNW 2.5 mph 3.7 mph 69% 0 in 371.00 W/m2 unknown
09:44 48.2 °F 39.2 °F 30.5 in West 3.7 mph 5 mph 69% 0 in 278.00 W/m2 unknown
09:49 48.2 °F 39.2 °F 30.5 in West 3.7 mph 5 mph 69% 0 in 225.00 W/m2 unknown
09:54 48.2 °F 37.4 °F 30.5 in WNW 2.5 mph 5 mph 67% 0 in 213.00 W/m2 unknown
09:59 50 °F 39.2 °F 30.5 in WNW 2.5 mph 3.7 mph 67% 0 in 232.00 W/m2 unknown
10:04 50 °F 39.2 °F 30.5 in WNW 3.1 mph 3.7 mph 66% 0 in 260.00 W/m2 unknown
10:09 50 °F 39.2 °F 30.5 in WNW 3.7 mph 4.3 mph 66% 0 in 271.00 W/m2 unknown
10:14 50 °F 39.2 °F 30.5 in WSW 1.9 mph 5 mph 67% 0 in 272.00 W/m2 unknown
10:19 50 °F 39.2 °F 30.5 in WNW 5 mph 6.2 mph 67% 0 in 262.00 W/m2 unknown
10:24 50 °F 39.2 °F 30.5 in WNW 3.7 mph 6.2 mph 66% 0 in 262.00 W/m2 unknown
10:29 50 °F 39.2 °F 30.5 in West 5.6 mph 6.8 mph 66% 0 in 265.00 W/m2 unknown
10:34 50 °F 39.2 °F 30.5 in West 6.2 mph 6.8 mph 66% 0 in 265.00 W/m2 unknown
10:39 50 °F 39.2 °F 30.5 in West 5 mph 6.2 mph 66% 0 in 229.00 W/m2 unknown
10:44 50 °F 39.2 °F 30.5 in WSW 5 mph 6.2 mph 66% 0 in 225.00 W/m2 unknown
10:49 50 °F 39.2 °F 30.5 in West 5 mph 6.2 mph 66% 0 in 223.00 W/m2 unknown
10:54 50 °F 39.2 °F 30.5 in WSW 6.2 mph 8.7 mph 66% 0 in 218.00 W/m2 unknown
10:59 50 °F 39.2 °F 30.5 in WSW 6.8 mph 9.3 mph 65% 0 in 255.00 W/m2 unknown
11:04 50 °F 39.2 °F 30.5 in WSW 5 mph 8.7 mph 65% 0 in 309.00 W/m2 unknown
11:09 50 °F 39.2 °F 30.5 in West 6.2 mph 8.1 mph 65% 0 in 285.00 W/m2 unknown
11:14 50 °F 39.2 °F 30.5 in West 6.2 mph 8.1 mph 64% 0 in 265.00 W/m2 unknown
11:19 50 °F 39.2 °F 30.5 in West 5 mph 6.8 mph 65% 0 in 241.00 W/m2 unknown
11:24 50 °F 37.4 °F 30.5 in WSW 5 mph 6.2 mph 64% 0 in 278.00 W/m2 unknown
11:29 50 °F 39.2 °F 30.5 in West 4.3 mph 5 mph 64% 0 in 292.00 W/m2 unknown
11:34 50 °F 39.2 °F 30.5 in West 4.3 mph 8.1 mph 64% 0 in 288.00 W/m2 unknown
11:39 50 °F 39.2 °F 30.5 in West 6.2 mph 8.1 mph 64% 0 in 292.00 W/m2 unknown
11:44 50 °F 39.2 °F 30.5 in West 6.2 mph 8.1 mph 63% 0 in 294.00 W/m2 unknown
11:49 50 °F 39.2 °F 30.5 in WSW 7.5 mph 9.3 mph 63% 0 in 327.00 W/m2 unknown
11:54 51.8 °F 39.2 °F 30.5 in West 6.2 mph 8.7 mph 63% 0 in 343.00 W/m2 unknown
11:59 51.8 °F 39.2 °F 30.5 in WNW 6.2 mph 8.1 mph 63% 0 in 339.00 W/m2 unknown
12:04 51.8 °F 39.2 °F 30.5 in West 6.8 mph 9.3 mph 64% 0 in 401.00 W/m2 unknown
12:09 51.8 °F 39.2 °F 30.5 in West 6.8 mph 9.3 mph 63% 0 in 401.00 W/m2 unknown
12:14 51.8 °F 39.2 °F 30.5 in WSW 6.2 mph 9.3 mph 62% 0 in 352.00 W/m2 unknown
12:19 51.8 °F 39.2 °F 30.5 in West 6.2 mph 8.1 mph 63% 0 in 359.00 W/m2 unknown
12:24 51.8 °F 39.2 °F 30.5 in WSW 7.5 mph 9.3 mph 62% 0 in 330.00 W/m2 unknown
12:29 51.8 °F 39.2 °F 30.5 in West 6.2 mph 8.7 mph 62% 0 in 287.00 W/m2 unknown
12:34 51.8 °F 39.2 °F 30.5 in West 7.5 mph 9.3 mph 61% 0 in 287.00 W/m2 unknown
12:39 51.8 °F 39.2 °F 30.5 in West 6.2 mph 8.7 mph 61% 0 in 281.00 W/m2 unknown
12:44 51.8 °F 37.4 °F 30.5 in WNW 6.2 mph 9.3 mph 61% 0 in 292.00 W/m2 unknown
12:49 51.8 °F 39.2 °F 30.5 in WNW 7.5 mph 10.6 mph 61% 0 in 290.00 W/m2 unknown
12:54 51.8 °F 39.2 °F 30.5 in West 6.2 mph 8.7 mph 61% 0 in 269.00 W/m2 unknown
12:59 51.8 °F 39.2 °F 30.5 in WSW 6.8 mph 9.3 mph 61% 0 in 265.00 W/m2 unknown
13:04 51.8 °F 39.2 °F 30.5 in West 5 mph 8.7 mph 61% 0 in 283.00 W/m2 unknown
13:09 51.8 °F 39.2 °F 30.5 in West 6.8 mph 10.6 mph 62% 0 in 325.00 W/m2 unknown
13:14 51.8 °F 39.2 °F 30.5 in West 6.2 mph 9.3 mph 61% 0 in 390.00 W/m2 unknown
13:19 51.8 °F 39.2 °F 30.5 in WSW 6.8 mph 8.7 mph 61% 0 in 374.00 W/m2 unknown
13:24 51.8 °F 39.2 °F 30.5 in West 6.2 mph 8.1 mph 60% 0 in 290.00 W/m2 unknown
13:29 51.8 °F 39.2 °F 30.5 in WNW 5 mph 6.8 mph 59% 0 in 269.00 W/m2 unknown
13:34 51.8 °F 39.2 °F 30.5 in WNW 5 mph 6.8 mph 60% 0 in 315.00 W/m2 unknown
13:39 51.8 °F 39.2 °F 30.5 in West 6.2 mph 8.7 mph 60% 0 in 315.00 W/m2 unknown
13:44 51.8 °F 39.2 °F 30.5 in West 6.2 mph 9.3 mph 60% 0 in 309.00 W/m2 unknown
13:49 53.6 °F 39.2 °F 30.5 in WSW 6.2 mph 8.7 mph 59% 0 in 285.00 W/m2 unknown
13:54 51.8 °F 39.2 °F 30.5 in WSW 6.8 mph 10.6 mph 59% 0 in 272.00 W/m2 unknown
13:59 51.8 °F 39.2 °F 30.5 in WNW 6.2 mph 9.9 mph 59% 0 in 243.00 W/m2 unknown
14:04 51.8 °F 39.2 °F 30.5 in WNW 7.5 mph 10.6 mph 59% 0 in 246.00 W/m2 unknown
14:09 51.8 °F 39.2 °F 30.5 in West 6.8 mph 9.9 mph 59% 0 in 227.00 W/m2 unknown
14:14 51.8 °F 39.2 °F 30.5 in West 6.2 mph 8.7 mph 59% 0 in 206.00 W/m2 unknown
14:19 51.8 °F 39.2 °F 30.5 in West 5.6 mph 8.1 mph 60% 0 in 211.00 W/m2 unknown
14:24 51.8 °F 39.2 °F 30.5 in West 8.1 mph 10.6 mph 60% 0 in 237.00 W/m2 unknown
14:29 53.6 °F 39.2 °F 30.5 in West 6.8 mph 9.9 mph 60% 0 in 236.00 W/m2 unknown
14:34 53.6 °F 39.2 °F 30.5 in WNW 7.5 mph 9.3 mph 59% 0 in 230.00 W/m2 unknown
14:39 53.6 °F 39.2 °F 30.5 in West 6.2 mph 8.7 mph 59% 0 in 230.00 W/m2 unknown
14:44 53.6 °F 39.2 °F 30.5 in West 6.2 mph 9.3 mph 59% 0 in 207.00 W/m2 unknown
14:49 53.6 °F 39.2 °F 30.5 in NW 6.2 mph 8.7 mph 58% 0 in 206.00 W/m2 unknown
14:54 53.6 °F 39.2 °F 30.5 in West 6.2 mph 9.3 mph 59% 0 in 192.00 W/m2 unknown
14:59 51.8 °F 39.2 °F 30.5 in West 5 mph 8.7 mph 59% 0 in 207.00 W/m2 unknown
15:04 53.6 °F 39.2 °F 30.5 in WNW 5 mph 6.2 mph 59% 0 in 211.00 W/m2 unknown
15:09 53.6 °F 37.4 °F 30.5 in WNW 5 mph 6.2 mph 57% 0 in 204.00 W/m2 unknown
15:14 53.6 °F 37.4 °F 30.5 in WNW 6.8 mph 8.1 mph 57% 0 in 186.00 W/m2 unknown
15:19 53.6 °F 37.4 °F 30.5 in West 6.2 mph 8.1 mph 58% 0 in 186.00 W/m2 unknown
15:24 53.6 °F 39.2 °F 30.5 in West 5.6 mph 8.1 mph 58% 0 in 192.00 W/m2 unknown
15:29 53.6 °F 37.4 °F 30.5 in WNW 5.6 mph 8.1 mph 57% 0 in 185.00 W/m2 unknown
15:34 53.6 °F 37.4 °F 30.5 in WNW 6.2 mph 6.8 mph 55% 0 in 163.00 W/m2 unknown
15:39 53.6 °F 37.4 °F 30.5 in WNW 6.2 mph 8.1 mph 55% 0 in 199.00 W/m2 unknown
15:44 53.6 °F 37.4 °F 30.5 in WNW 5 mph 8.1 mph 55% 0 in 199.00 W/m2 unknown
15:49 53.6 °F 37.4 °F 30.5 in WNW 5.6 mph 6.8 mph 55% 0 in 199.00 W/m2 unknown
15:54 53.6 °F 37.4 °F 30.5 in NW 6.2 mph 6.8 mph 55% 0 in 188.00 W/m2 unknown
15:59 53.6 °F 37.4 °F 30.5 in West 4.3 mph 6.8 mph 54% 0 in 178.00 W/m2 unknown
16:04 53.6 °F 37.4 °F 30.5 in West 5.6 mph 6.8 mph 54% 0 in 171.00 W/m2 unknown
16:09 53.6 °F 37.4 °F 30.5 in WNW 5 mph 6.8 mph 54% 0 in 160.00 W/m2 unknown
16:14 53.6 °F 37.4 °F 30.5 in West 5 mph 6.8 mph 54% 0 in 146.00 W/m2 unknown
16:19 53.6 °F 37.4 °F 30.5 in West 5 mph 6.8 mph 54% 0 in 144.00 W/m2 unknown
16:24 53.6 °F 37.4 °F 30.5 in West 3.7 mph 6.8 mph 55% 0 in 141.00 W/m2 unknown
16:29 53.6 °F 37.4 °F 30.5 in WNW 3.7 mph 5 mph 55% 0 in 125.00 W/m2 unknown
16:34 53.6 °F 37.4 °F 30.5 in West 4.3 mph 6.2 mph 55% 0 in 116.00 W/m2 unknown
16:39 53.6 °F 37.4 °F 30.5 in West 4.3 mph 6.2 mph 55% 0 in 116.00 W/m2 unknown
16:44 53.6 °F 37.4 °F 30.5 in WNW 3.1 mph 6.2 mph 55% 0 in 113.00 W/m2 unknown
16:49 53.6 °F 37.4 °F 30.5 in West 3.1 mph 5 mph 55% 0 in 91.00 W/m2 unknown
16:54 53.6 °F 37.4 °F 30.5 in West 3.7 mph 5 mph 55% 0 in 72.00 W/m2 unknown
16:59 53.6 °F 37.4 °F 30.5 in West 3.7 mph 5 mph 55% 0 in 79.00 W/m2 unknown
17:04 53.6 °F 37.4 °F 30.5 in NW 3.1 mph 5 mph 54% 0 in 81.00 W/m2 unknown
17:09 53.6 °F 37.4 °F 30.5 in West 3.1 mph 3.7 mph 54% 0 in 81.00 W/m2 unknown
17:14 53.6 °F 37.4 °F 30.5 in West 3.7 mph 5 mph 55% 0 in 77.00 W/m2 unknown
17:19 53.6 °F 37.4 °F 30.5 in West 3.1 mph 5 mph 55% 0 in 54.00 W/m2 unknown
17:24 53.6 °F 37.4 °F 30.5 in West 3.1 mph 3.7 mph 55% 0 in 42.00 W/m2 unknown
17:29 53.6 °F 37.4 °F 30.5 in WSW 3.1 mph 3.7 mph 55% 0 in 44.00 W/m2 unknown
17:34 53.6 °F 37.4 °F 30.5 in WSW 1.9 mph 3.7 mph 56% 0 in 44.00 W/m2 unknown
17:39 53.6 °F 37.4 °F 30.5 in WSW 1.9 mph 3.7 mph 55% 0 in 39.00 W/m2 unknown
17:44 53.6 °F 37.4 °F 30.5 in WSW 1.2 mph 3.1 mph 56% 0 in 32.00 W/m2 unknown
17:49 53.6 °F 37.4 °F 30.5 in West 1.2 mph 2.5 mph 56% 0 in 32.00 W/m2 unknown
17:54 53.6 °F 37.4 °F 30.5 in West 1.2 mph 1.9 mph 56% 0 in 25.00 W/m2 unknown
17:59 53.6 °F 37.4 °F 30.5 in West 1.2 mph 2.5 mph 56% 0 in 16.00 W/m2 unknown
18:04 51.8 °F 37.4 °F 30.5 in West 1.2 mph 2.5 mph 57% 0 in 11.00 W/m2 unknown
18:09 51.8 °F 37.4 °F 30.5 in Calm   1.9 mph 57% 0 in 9.00 W/m2 unknown
18:14 51.8 °F 37.4 °F 30.5 in Calm   1.2 mph 57% 0 in 5.00 W/m2 unknown
18:19 51.8 °F 37.4 °F 30.5 in Calm   1.2 mph 58% 0 in 0.00 W/m2 unknown
18:24 51.8 °F 37.4 °F 30.5 in Calm   1.2 mph 59% 0 in 0.00 W/m2 unknown
18:29 51.8 °F 37.4 °F 30.5 in Calm     60% 0 in 0.00 W/m2 unknown
18:34 51.8 °F 37.4 °F 30.5 in Calm     61% 0 in 0.00 W/m2 unknown
18:39 51.8 °F 37.4 °F 30.5 in Calm     61% 0 in 0.00 W/m2 unknown
18:44 50 °F 37.4 °F 30.5 in Calm     62% 0 in 0.00 W/m2 unknown
18:49 50 °F 37.4 °F 30.5 in Calm     62% 0 in 0.00 W/m2 unknown
18:54 50 °F 37.4 °F 30.5 in Calm     63% 0 in 0.00 W/m2 unknown
18:59 50 °F 37.4 °F 30.5 in West 1.2 mph 1.9 mph 64% 0 in 0.00 W/m2 unknown
19:04 48.2 °F 37.4 °F 30.5 in SW 1.9 mph 2.5 mph 64% 0 in 0.00 W/m2 unknown
19:09 48.2 °F 37.4 °F 30.5 in SE 1.9 mph 2.5 mph 64% 0 in 0.00 W/m2 unknown
19:14 48.2 °F 37.4 °F 30.5 in SE 1.9 mph 2.5 mph 66% 0 in 0.00 W/m2 unknown
19:19 48.2 °F 37.4 °F 30.5 in SE 1.2 mph 2.5 mph 67% 0 in 0.00 W/m2 unknown
19:24 48.2 °F 37.4 °F 30.5 in SE 1.2 mph 1.9 mph 66% 0 in 0.00 W/m2 unknown
19:29 48.2 °F 37.4 °F 30.6 in Calm   1.2 mph 66% 0 in 0.00 W/m2 unknown
19:34 48.2 °F 37.4 °F 30.6 in Calm   1.2 mph 66% 0 in 0.00 W/m2 unknown
19:39 48.2 °F 37.4 °F 30.6 in Calm     67% 0 in 0.00 W/m2 unknown
19:44 48.2 °F 37.4 °F 30.6 in Calm     67% 0 in 0.00 W/m2 unknown
19:49 48.2 °F 37.4 °F 30.6 in Calm     70% 0 in 0.00 W/m2 unknown
19:54 48.2 °F 37.4 °F 30.6 in Calm     69% 0 in 0.00 W/m2 unknown
19:59 46.4 °F 37.4 °F 30.6 in Calm     69% 0 in 0.00 W/m2 unknown
20:04 46.4 °F 37.4 °F 30.6 in Calm     69% 0 in 0.00 W/m2 unknown
20:09 46.4 °F 37.4 °F 30.6 in Calm     69% 0 in 0.00 W/m2 unknown
20:14 46.4 °F 37.4 °F 30.6 in Calm     68% 0 in 0.00 W/m2 unknown
20:19 46.4 °F 37.4 °F 30.6 in Calm     69% 0 in 0.00 W/m2 unknown
20:24 46.4 °F 37.4 °F 30.6 in Calm     69% 0 in 0.00 W/m2 unknown
20:29 46.4 °F 37.4 °F 30.6 in Calm     69% 0 in 0.00 W/m2 unknown
20:34 46.4 °F 37.4 °F 30.6 in Calm     69% 0 in 0.00 W/m2 unknown
20:39 46.4 °F 37.4 °F 30.6 in SE 1.2 mph 2.5 mph 69% 0 in 0.00 W/m2 unknown
20:44 46.4 °F 37.4 °F 30.6 in SE 1.2 mph 2.5 mph 69% 0 in 0.00 W/m2 unknown
20:49 46.4 °F 37.4 °F 30.6 in ESE 3.1 mph 3.7 mph 69% 0 in 0.00 W/m2 unknown
20:54 46.4 °F 37.4 °F 30.6 in ESE 3.1 mph 3.7 mph 68% 0 in 0.00 W/m2 unknown
20:59 46.4 °F 37.4 °F 30.6 in East 3.7 mph 5 mph 71% 0 in 0.00 W/m2 unknown
21:04 44.6 °F 37.4 °F 30.6 in East 2.5 mph 5 mph 74% 0 in 0.00 W/m2 unknown
21:09 44.6 °F 37.4 °F 30.6 in East 1.9 mph 3.7 mph 75% 0 in 0.00 W/m2 unknown
21:14 44.6 °F 37.4 °F 30.6 in East 2.5 mph 3.7 mph 75% 0 in 0.00 W/m2 unknown
21:19 44.6 °F 37.4 °F 30.6 in East 2.5 mph 3.7 mph 74% 0 in 0.00 W/m2 unknown
21:24 44.6 °F 37.4 °F 30.6 in ENE 1.9 mph 3.1 mph 74% 0 in 0.00 W/m2 unknown
21:29 44.6 °F 37.4 °F 30.6 in ENE 3.1 mph 3.7 mph 74% 0 in 0.00 W/m2 unknown
21:34 46.4 °F 37.4 °F 30.6 in ENE 3.1 mph 3.7 mph 72% 0 in 0.00 W/m2 unknown
21:39 46.4 °F 37.4 °F 30.6 in ENE 3.1 mph 3.7 mph 71% 0 in 0.00 W/m2 unknown
21:44 46.4 °F 37.4 °F 30.6 in ENE 3.1 mph 3.7 mph 71% 0 in 0.00 W/m2 unknown
21:49 46.4 °F 37.4 °F 30.6 in ENE 3.1 mph 3.7 mph 72% 0 in 0.00 W/m2 unknown
21:54 44.6 °F 37.4 °F 30.6 in ENE 3.1 mph 3.7 mph 72% 0 in 0.00 W/m2 unknown
21:59 44.6 °F 37.4 °F 30.6 in ENE 3.1 mph 3.7 mph 72% 0 in 0.00 W/m2 unknown
22:04 44.6 °F 37.4 °F 30.6 in ENE 2.5 mph 3.7 mph 72% 0 in 0.00 W/m2 unknown
22:09 44.6 °F 37.4 °F 30.6 in ENE 3.7 mph 5 mph 72% 0 in 0.00 W/m2 unknown
22:14 44.6 °F 37.4 °F 30.6 in ENE 6.2 mph 8.1 mph 72% 0 in 0.00 W/m2 unknown
22:19 44.6 °F 37.4 °F 30.6 in NE 6.2 mph 8.1 mph 73% 0 in 0.00 W/m2 unknown
22:24 44.6 °F 37.4 °F 30.6 in ENE 5.6 mph 8.1 mph 73% 0 in 0.00 W/m2 unknown
22:29 44.6 °F 37.4 °F 30.6 in ENE 5.6 mph 8.1 mph 72% 0 in 0.00 W/m2 unknown
22:34 44.6 °F 37.4 °F 30.6 in ENE 4.3 mph 8.1 mph 72% 0 in 0.00 W/m2 unknown
22:39 44.6 °F 37.4 °F 30.6 in ENE 4.3 mph 5 mph 72% 0 in 0.00 W/m2 unknown
22:44 44.6 °F 37.4 °F 30.6 in ENE 4.3 mph 5 mph 72% 0 in 0.00 W/m2 unknown
22:49 44.6 °F 37.4 °F 30.6 in ENE 3.7 mph 5 mph 73% 0 in 0.00 W/m2 unknown
22:54 44.6 °F 37.4 °F 30.6 in ENE 3.7 mph 5 mph 73% 0 in 0.00 W/m2 unknown
22:59 44.6 °F 37.4 °F 30.6 in ENE 3.7 mph 5 mph 73% 0 in 0.00 W/m2 unknown
23:04 44.6 °F 35.6 °F 30.6 in ENE 2.5 mph 3.7 mph 73% 0 in 0.00 W/m2 unknown
23:09 44.6 °F 35.6 °F 30.6 in ENE 2.5 mph 3.7 mph 73% 0 in 0.00 W/m2 unknown
23:14 44.6 °F 35.6 °F 30.6 in ENE 1.9 mph 3.7 mph 73% 0 in 0.00 W/m2 unknown
23:19 44.6 °F 35.6 °F 30.6 in NE 1.9 mph 3.7 mph 73% 0 in 0.00 W/m2 unknown
23:24 44.6 °F 37.4 °F 30.6 in NE 1.9 mph 3.1 mph 74% 0 in 0.00 W/m2 unknown
23:29 44.6 °F 37.4 °F 30.6 in NE 2.5 mph 3.7 mph 74% 0 in 0.00 W/m2 unknown
23:34 44.6 °F 37.4 °F 30.6 in ENE 1.9 mph 3.7 mph 74% 0 in 0.00 W/m2 unknown
23:39 44.6 °F 37.4 °F 30.6 in NE 3.1 mph 3.7 mph 75% 0 in 0.00 W/m2 unknown
23:44 44.6 °F 37.4 °F 30.6 in NE 3.1 mph 3.7 mph 76% 0 in 0.00 W/m2 unknown
23:49 44.6 °F 37.4 °F 30.6 in NNE 2.5 mph 3.7 mph 76% 0 in 0.00 W/m2 unknown
23:54 42.8 °F 37.4 °F 30.6 in NNE 1.2 mph 3.1 mph 77% 0 in 0.00 W/m2 unknown
23:59 42.8 °F 37.4 °F 30.6 in NNE 1.2 mph 2.5 mph 77% 0 in 0.00 W/m2 unknown
Stazione Meteorologica MeteoMincio Rivalta s/M (MN)
Con i complimenti di Weather Underground - 4 mb



GLOSSARIO METEOROLOGICO
Temperatura
Esprime il grado d'agitazione delle molecole d'aria, impiegando una grandezza scalare chiamata appunto 'grado'. In Italia viene correntemente impiegato il 'grado centigrado', detto anche 'grado Celsius', il cui simbolo è: °C. Tale unità di misura è definita in modo che i valori 0°C e 100°C corrispondano rispettivamente al punto di fusione e al punto d'ebollizione dell'acqua a pressione atmosferica normale.
Share

Non seguire questo link o sarai bannato dal sito!